This is the latest recevied weather packets stored in our database for station/object DC1RS. If no packets are shown the sender has not sent any weather packets the latest 10 day(s).
| Time | Temp. | Humidity | Pressure | Rain* | Wind** | Luminosity | Snow |
|---|---|---|---|---|---|---|---|
| 1777636870 | 20.56° C | 35% | 1028.1 hPa | 0 mm | - | 819 W/m² | - |
| 1777635170 | 20.56° C | 33% | 1028.4 hPa | 0 mm | - | 833 W/m² | - |
| 1777633551 | 20° C | 34% | 1028.9 hPa | 0 mm | - | 833 W/m² | - |
| 1777631631 | 19.44° C | 34% | 1029.2 hPa | 0 mm | - | 825 W/m² | - |
| 1777630071 | 18.33° C | 36% | 1029.7 hPa | 0 mm | - | 801 W/m² | - |
| 1777628511 | 18.33° C | 37% | 1029.9 hPa | 0 mm | - | 770 W/m² | - |
| 1777626921 | 17.22° C | 36% | 1029.6 hPa | 0 mm | - | 728 W/m² | - |
| 1777625060 | 16.67° C | 38% | 1029.9 hPa | 0 mm | - | 668 W/m² | - |
| 1777623501 | 16.11° C | 36% | 1030.1 hPa | 0 mm | - | 610 W/m² | - |
| 1777621881 | 15.56° C | 36% | 1029.8 hPa | 0 mm | - | 540 W/m² | - |
| 1777620101 | 13.33° C | 46% | 1029.9 hPa | 0 mm | - | 443 W/m² | - |
| 1777618512 | 12.22° C | 48% | 1030.1 hPa | 0 mm | - | 358 W/m² | - |
| 1777617741 | 12.22° C | 49% | 1029.9 hPa | 0 mm | - | 324 W/m² | - |
| 1777616451 | 10.56° C | 53% | 1029.7 hPa | 0 mm | - | 252 W/m² | - |
| 1777614861 | 8.89° C | 56% | 1029.5 hPa | 0 mm | - | 164 W/m² | - |
| 1777613571 | 6.67° C | 62% | 1029.4 hPa | 0 mm | - | 104 W/m² | - |
| 1777611951 | 5° C | 70% | 1029.3 hPa | 0 mm | - | 51 W/m² | - |
| 1777610361 | 3.89° C | 73% | 1029.2 hPa | 0 mm | - | 28 W/m² | - |
| 1777608531 | 2.22° C | 75% | 1029 hPa | 0 mm | - | 12 W/m² | - |
| 1777606941 | 2.78° C | 73% | 1028.9 hPa | 0 mm | - | 2 W/m² | - |
| 1777606152 | 2.78° C | 70% | 1028.9 hPa | 0 mm | - | 0 W/m² | - |
| 1777605711 | 3.33° C | 69% | 1029 hPa | 0 mm | - | 0 W/m² | - |
| 1777604121 | 3.33° C | 65% | 1028.8 hPa | 0 mm | - | 0 W/m² | - |
| 1777601211 | 3.89° C | 63% | 1028.6 hPa | 0 mm | - | 0 W/m² | - |
| 1777599651 | 4.44° C | 61% | 1028.5 hPa | 0 mm | - | 0 W/m² | - |
* Rain latest hour (hover to see other rain measurements)
** Current wind speed in m/s (hover to see current wind gust speed)